This demonstration page uses our WeatherBlox Daily Observations layout. Learn more.

Left ArrowRight Arrow

39.08367, -84.50855

Hourly Observations for August 3, 2015

Temp ( °F °C ) Dew Point ( °F °C ) Humidity (%) Winds ( mph kmh ) Pressure ( in mb ) Visibility ( mi km ) Precip ( " mm )
12:53 am 00:53 Clear 67 19.4 64 17.8 91 91 N N/A 29.86 1011 10 16 N/A
1:53 am 01:53 Clear 66 18.9 63 17.2 90 90 N N/A 29.87 1011 10 16 N/A
2:53 am 02:53 Clear 65 18.3 63 17.2 93 93 N N/A 29.86 1011 10 16 N/A
3:53 am 03:53 Mostly Clear 64 17.8 63 17.2 96 96 N N/A 29.85 1011 10 16 N/A
4:53 am 04:53 Clear 64 17.8 63 17.2 96 96 NE 6 9 29.85 1011 10 16 N/A
5:27 am 05:27 Mostly Cloudy with Nearby Thunderstorms 69 20.6 58 14.4 68 68 NNE 24 39 29.91 1013 10 16 N/A
5:38 am 05:38 Cloudy with Thunderstorms 68 20 59 15 73 73 NNE 18 30 29.91 1013 10 16 N/A
5:53 am 05:53 Cloudy with Strong Thunderstorms 63 17.2 62 16.7 97 97 NE 16 26 29.96 1015 2 2 0.24 6.10
6:11 am 06:11 Cloudy with Strong Thunderstorms 63 17.2 62 16.7 97 97 ENE 8 13 29.97 1015 3 4 0.21 5.33
6:38 am 06:38 Cloudy with Nearby Thunderstorms 63 17 63 17 100 100 ENE 7 11 29.97 1015 3 5 N/A
6:53 am 06:53 Cloudy with Thunderstorms 63 17.2 62 16.7 97 97 E 7 11 29.96 1015 6 10 0.48 12.19
7:53 am 07:53 Partly Cloudy with Nearby Thunderstorms 63 17.2 62 16.7 97 97 SW 8 13 29.90 1012 10 16 0.02 0.51
7:59 am 07:59 Mostly Sunny 63 17.2 62 16.7 97 97 SW 6 9 29.91 1013 10 16 N/A
8:53 am 08:53 Partly Cloudy 66 18.9 64 17.8 93 93 SSW 7 11 29.88 1012 10 16 N/A
9:53 am 09:53 Sunny 70 21.1 64 17.8 82 82 SSW 8 13 29.88 1012 10 16 N/A
10:53 am 10:53 Sunny 73 22.8 66 18.9 79 79 S 7 11 29.88 1012 10 16 N/A
11:53 am 11:53 Sunny 77 25 66 18.9 69 69 S 14 22 29.87 1011 10 16 N/A
12:53 pm 12:53 Sunny 81 27.2 68 20 65 65 SSW 15 24 29.86 1011 10 16 N/A
1:53 pm 13:53 Sunny 82 27.8 68 20 63 63 SSW 10 17 29.85 1011 10 16 N/A
2:53 pm 14:53 Sunny 84 28.9 69 20.6 61 61 SSW 10 17 29.84 1011 10 16 N/A
3:53 pm 15:53 Sunny 85 29.4 69 20.6 59 59 W 8 13 29.83 1010 10 16 N/A
4:53 pm 16:53 Mostly Sunny 86 30 69 20.6 57 57 W 10 17 29.82 1010 10 16 N/A
5:53 pm 17:53 Mostly Sunny 82 27.8 68 20 63 63 WSW 8 13 29.83 1010 10 16 N/A
5:58 pm 17:58 Partly Cloudy with Thunderstorms 81 27 68 20 66 66 WSW 8 13 29.83 1010 10 16 N/A
6:11 pm 18:11 Partly Cloudy with Thunderstorms 82 27.8 69 20.6 65 65 NW 6 9 29.88 1012 10 16 N/A
6:37 pm 18:37 Cloudy with Strong Thunderstorms 72 22.2 72 22.2 100 100 N 16 26 29.91 1013 3 4 0.19 4.83
6:46 pm 18:46 Cloudy with Strong Thunderstorms 72 22 N/A N/A NNE 12 19 29.88 1012 3 4 N/A
6:53 pm 18:53 Cloudy with Thunderstorms 70 21 N/A N/A VRB 3 6 29.90 1012 3 5 0.28 7.11
7:03 pm 19:03 Cloudy with Thunderstorms 70 21 N/A N/A S 5 7 29.88 1012 2 3 N/A
7:18 pm 19:18 Cloudy with Thunderstorms 70 21 N/A N/A SSE 5 7 29.88 1012 5 8 N/A
7:53 pm 19:53 Mostly Cloudy 70 21 N/A N/A NE 6 9 29.85 1011 10 16 0.28 7.11
8:27 pm 20:27 Mostly Cloudy 72 22 N/A N/A N 5 7 29.85 1011 8 13 0.01 0.25
8:53 pm 20:53 Mostly Clear 70 21 N/A N/A S 3 6 29.86 1011 8 13 0.01 0.25
9:07 pm 21:07 Partly Cloudy with Nearby Thunderstorms 68 20 N/A N/A SW 5 7 29.88 1012 8 13 N/A
9:25 pm 21:25 Mostly Clear 70 21 N/A N/A ENE 3 6 29.88 1012 10 16 N/A
9:53 pm 21:53 Mostly Clear 70 21 N/A N/A S 3 6 29.88 1012 10 16 N/A
10:53 pm 22:53 Mostly Clear with Mist and Fog 67 19.4 67 19.4 100 100 N N/A 29.89 1012 5 8 N/A
11:07 pm 23:07 Clear with Mist and Fog 66 19 N/A N/A N N/A 29.91 1013 2 3 N/A
11:25 pm 23:25 Hazy 66 19 N/A N/A N N/A 29.91 1013 4 6 N/A
11:53 pm 23:53 Mostly Cloudy with Mist and Fog 68 20 68 20 100 100 N N/A 29.91 1013 6 10 N/A

Powered by AerisWeather